Weather History for Port Huron, MI

Change the Weather History Date:

Thursday, September 5, 2013

  Actual Average (KMTC) Record (KMTC)
Temperature  
Mean Temperature 53 °F -  
Max Temperature 64 °F 76 °F 97 °F (1954)
Min Temperature 42 °F 57 °F 44 °F (1974)
Degree Days  
Heating Degree Days 12    
Growing Degree Days 3 (Base 50)    
Moisture  
Dew Point 51 °F    
Average Humidity 81    
Maximum Humidity 100    
Minimum Humidity 59    
Precipitation  
Precipitation 0.00 in - - ()
Sea Level Pressure  
Sea Level Pressure 30.21 in    
Wind  
Wind Speed 6 mph (North)    
Max Wind Speed 15 mph    
Max Gust Speed 21 mph    
Visibility 10 miles    
Events      
Averages and records for this station are not official NWS values.
T = Trace of Precipitation, MM = Missing Value Source: NWS Daily Summary

Daily Weather History Graph

Daily Weather History Graph

Search for Another Location

Airport:

Trip Planner

Search our weather history database for the weather conditions in past years. The results will help you decide how hot, cold, wet, or windy it might be!

Date:

Astronomy

Sep. 05, 2013 Rise Set
Actual Time 6:59 AM EDT 7:57 PM EDT
Civil Twilight 6:30 AM EDT 8:26 PM EDT
Nautical Twilight 5:55 AM EDT 9:00 PM EDT
Astronomical Twilight 5:19 AM EDT 9:36 PM EDT
Moon 7:11 AM EDT (9/5) 7:46 PM EDT (9/5)
Length of Visible Light 13h 55m
Length of Day
12h 58m
Waxing Crescent, 0% of the Moon is Illuminated
Sep 5
Waxing Crescent
Sep 12
First Quarter
Sep 19
Full
Sep 26
Last Quarter
Oct 4
New

Hourly Weather History & Observations

Time (EDT) Temp. Dew Point Humidity Pressure Visibility Wind Dir Wind Speed Gust Speed Precip Events Conditions
12:16 AM 60.8 °F 60.8 °F 100% 30.09 in 10.0 mi NNW 3.5 mph - N/A   Overcast
12:36 AM 60.8 °F 60.8 °F 100% 30.09 in 10.0 mi NW 3.5 mph - N/A   Overcast
12:56 AM 60.8 °F 60.8 °F 100% 30.09 in 10.0 mi NNW 3.5 mph - N/A   Overcast
1:16 AM 62.6 °F 60.8 °F 94% 30.10 in 10.0 mi North 5.8 mph - N/A   Overcast
1:36 AM 60.8 °F 59.0 °F 94% 30.10 in 10.0 mi NNW 5.8 mph - N/A   Mostly Cloudy
1:56 AM 59.0 °F 57.2 °F 94% 30.11 in 10.0 mi NW 4.6 mph - N/A   Scattered Clouds
2:16 AM 59.0 °F 57.2 °F 94% 30.10 in 10.0 mi NW 4.6 mph - N/A   Mostly Cloudy
2:36 AM 57.2 °F 55.4 °F 94% 30.11 in 10.0 mi NW 3.5 mph - N/A   Scattered Clouds
2:56 AM 57.2 °F 55.4 °F 94% 30.11 in 10.0 mi NW 4.6 mph - N/A   Scattered Clouds
3:16 AM 55.4 °F 55.4 °F 100% 30.11 in 10.0 mi NW 3.5 mph - N/A   Scattered Clouds
3:36 AM 55.4 °F 53.6 °F 94% 30.12 in 10.0 mi NW 4.6 mph - N/A   Scattered Clouds
3:56 AM 55.4 °F 53.6 °F 94% 30.13 in 10.0 mi NW 3.5 mph - N/A   Scattered Clouds
4:16 AM 55.4 °F 53.6 °F 94% 30.13 in 10.0 mi NNW 3.5 mph - N/A   Scattered Clouds
4:36 AM 55.4 °F 53.6 °F 94% 30.14 in 10.0 mi NNW 6.9 mph - N/A   Mostly Cloudy
4:56 AM 55.4 °F 51.8 °F 88% 30.14 in 10.0 mi NNW 5.8 mph - N/A   Overcast
5:16 AM 53.6 °F 50.0 °F 88% 30.15 in 10.0 mi NW 5.8 mph - N/A   Mostly Cloudy
5:36 AM 53.6 °F 50.0 °F 88% 30.16 in 10.0 mi NW 4.6 mph - N/A   Clear
5:56 AM 53.6 °F 50.0 °F 88% 30.17 in 10.0 mi NW 5.8 mph - N/A   Clear
6:16 AM 51.8 °F 48.2 °F 88% 30.17 in 10.0 mi NW 5.8 mph - N/A   Clear
6:36 AM 50.0 °F 48.2 °F 94% 30.18 in 10.0 mi WNW 5.8 mph - N/A   Clear
6:56 AM 50.0 °F 48.2 °F 94% 30.18 in 10.0 mi NW 5.8 mph - N/A   Clear
7:16 AM 50.0 °F 48.2 °F 94% 30.19 in 10.0 mi WNW 4.6 mph - N/A   Clear
7:36 AM 50.0 °F 48.2 °F 94% 30.19 in 10.0 mi WNW 6.9 mph - N/A   Clear
7:56 AM 51.8 °F 48.2 °F 88% 30.20 in 10.0 mi NW 6.9 mph - N/A   Clear
8:16 AM 51.8 °F 48.2 °F 88% 30.21 in 10.0 mi NW 6.9 mph - N/A   Clear
8:36 AM 53.6 °F 50.0 °F 88% 30.21 in 10.0 mi NW 8.1 mph - N/A   Clear
8:56 AM 55.4 °F 50.0 °F 82% 30.22 in 10.0 mi NW 8.1 mph - N/A   Clear
9:16 AM 57.2 °F 50.0 °F 77% 30.21 in 10.0 mi NW 9.2 mph - N/A   Clear
9:36 AM 59.0 °F 51.8 °F 77% 30.22 in 10.0 mi NW 10.4 mph - N/A   Clear
9:56 AM 60.8 °F 51.8 °F 72% 30.22 in 10.0 mi NW 10.4 mph - N/A   Clear
10:16 AM 60.8 °F 51.8 °F 72% 30.22 in 10.0 mi NNW 6.9 mph - N/A   Clear
10:36 AM 62.6 °F 53.6 °F 72% 30.22 in 10.0 mi North 8.1 mph 20.7 mph N/A   Scattered Clouds
10:56 AM 62.6 °F 53.6 °F 72% 30.23 in 10.0 mi North 10.4 mph - N/A   Mostly Cloudy
11:16 AM 62.6 °F 51.8 °F 68% 30.24 in 10.0 mi NNE 12.7 mph 18.4 mph N/A   Mostly Cloudy
11:36 AM 62.6 °F 51.8 °F 68% 30.24 in 10.0 mi NNE 12.7 mph 17.3 mph N/A   Mostly Cloudy
11:56 AM 62.6 °F 51.8 °F 68% 30.24 in 10.0 mi NNE 11.5 mph 18.4 mph N/A   Mostly Cloudy
12:16 PM 64.4 °F 51.8 °F 64% 30.24 in 10.0 mi North 12.7 mph 18.4 mph N/A   Mostly Cloudy
12:36 PM 64.4 °F 51.8 °F 64% 30.25 in 10.0 mi NNE 15.0 mph - N/A   Scattered Clouds
12:56 PM 64.4 °F 51.8 °F 64% 30.25 in 10.0 mi North 10.4 mph 17.3 mph N/A   Scattered Clouds
1:16 PM 64.4 °F 51.8 °F 64% 30.25 in 10.0 mi NNE 10.4 mph 17.3 mph N/A   Clear
1:36 PM 64.4 °F 51.8 °F 64% 30.25 in 10.0 mi North 8.1 mph 17.3 mph N/A   Clear
1:56 PM 64.4 °F 51.8 °F 64% 30.25 in 10.0 mi NE 13.8 mph 18.4 mph N/A   Scattered Clouds
2:16 PM 64.4 °F 50.0 °F 59% 30.25 in 10.0 mi NNE 9.2 mph 19.6 mph N/A   Scattered Clouds
2:36 PM 64.4 °F 50.0 °F 59% 30.25 in 10.0 mi NE 13.8 mph 19.6 mph N/A   Scattered Clouds
2:56 PM 64.4 °F 50.0 °F 59% 30.25 in 10.0 mi North 10.4 mph 19.6 mph N/A   Clear
3:16 PM 64.4 °F 50.0 °F 59% 30.25 in 10.0 mi NNE 12.7 mph 18.4 mph N/A   Clear
3:36 PM 64.4 °F 50.0 °F 59% 30.25 in 10.0 mi NNE 10.4 mph 18.4 mph N/A   Clear
3:56 PM 62.6 °F 50.0 °F 63% 30.25 in 10.0 mi NE 15.0 mph 18.4 mph N/A   Clear
4:16 PM 62.6 °F 50.0 °F 63% 30.25 in 10.0 mi NE 12.7 mph 17.3 mph N/A   Clear
4:36 PM 62.6 °F 50.0 °F 63% 30.25 in 10.0 mi NE 13.8 mph 18.4 mph N/A   Clear
4:56 PM 62.6 °F 50.0 °F 63% 30.26 in 10.0 mi NNE 9.2 mph - N/A   Clear
5:16 PM 62.6 °F 48.2 °F 59% 30.26 in 10.0 mi NNE 12.7 mph 17.3 mph N/A   Clear
5:36 PM 62.6 °F 50.0 °F 63% 30.26 in 10.0 mi NNE 10.4 mph 16.1 mph N/A   Clear
5:56 PM 60.8 °F 48.2 °F 63% 30.26 in 10.0 mi NNE 10.4 mph 17.3 mph N/A   Clear
6:16 PM 60.8 °F 50.0 °F 68% 30.26 in 10.0 mi NNE 8.1 mph - N/A   Clear
6:36 PM 59.0 °F 48.2 °F 67% 30.26 in 10.0 mi NNE 9.2 mph - N/A   Clear
6:56 PM 59.0 °F 48.2 °F 67% 30.26 in 10.0 mi NNE 5.8 mph - N/A   Clear
7:16 PM 57.2 °F 48.2 °F 72% 30.26 in 10.0 mi NNE 6.9 mph - N/A   Clear
7:36 PM 57.2 °F 48.2 °F 72% 30.26 in 10.0 mi NNE 4.6 mph - N/A   Clear
7:56 PM 55.4 °F 48.2 °F 77% 30.26 in 10.0 mi North 3.5 mph - N/A   Clear
8:16 PM 53.6 °F 48.2 °F 82% 30.26 in 10.0 mi NNE 3.5 mph - N/A   Clear
8:36 PM 53.6 °F 46.4 °F 77% 30.27 in 10.0 mi Calm Calm - N/A   Clear
8:56 PM 48.2 °F 46.4 °F 93% 30.27 in 10.0 mi Calm Calm - N/A   Clear
9:16 PM 48.2 °F 46.4 °F 93% 30.27 in 10.0 mi Calm Calm - N/A   Clear
9:36 PM 46.4 °F 46.4 °F 100% 30.27 in 10.0 mi Calm Calm - N/A   Clear
9:56 PM 46.4 °F 46.4 °F 100% 30.27 in 10.0 mi Calm Calm - N/A   Clear
10:16 PM 44.6 °F 44.6 °F 100% 30.27 in 10.0 mi Calm Calm - N/A   Clear
10:36 PM 44.6 °F 44.6 °F 100% 30.27 in 10.0 mi Calm Calm - N/A   Clear
10:56 PM 44.6 °F 44.6 °F 100% 30.27 in 10.0 mi Calm Calm - N/A   Clear
11:16 PM 44.6 °F 44.6 °F 100% 30.28 in 2.5 mi Calm Calm - N/A   Clear
11:36 PM 42.8 °F 42.8 °F 100% 30.27 in 10.0 mi Calm Calm - N/A   Clear
11:56 PM 42.8 °F 42.8 °F 100% 30.27 in 7.0 mi Calm Calm - N/A   Clear